Time,TemperatureF,DewpointF,PressureIn,WindDirection,WindDirectionDegrees,WindSpeedMPH,WindSpeedGustMPH,Humidity,HourlyPrecipIn,Conditions,Clouds,dailyrainin,SoftwareType,DateUTC
2017-03-28 00:00:00,63.6,55.0,29.99,SSW,202,6.8,16.0,74,0.00,,,0.00,Rainwise IP-100,2017-03-28 04:00:00,
2017-03-28 00:05:00,63.0,55.0,29.98,SSE,157,7.7,18.0,76,0.00,,,0.00,Rainwise IP-100,2017-03-28 04:05:00,
2017-03-28 00:11:00,62.2,55.0,29.98,SSE,157,7.5,15.0,78,0.00,,,0.00,Rainwise IP-100,2017-03-28 04:11:00,
2017-03-28 00:16:00,61.4,56.0,29.97,SSE,157,6.8,11.0,81,0.00,,,0.00,Rainwise IP-100,2017-03-28 04:16:00,
2017-03-28 00:21:00,60.8,55.0,29.96,ESE,112,5.6,8.0,83,0.00,,,0.00,Rainwise IP-100,2017-03-28 04:21:00,
2017-03-28 00:26:00,60.3,55.0,29.96,ESE,112,7.2,7.2,84,0.00,,,0.00,Rainwise IP-100,2017-03-28 04:26:00,
2017-03-28 00:31:00,60.4,56.0,29.96,ESE,112,5.1,8.0,84,0.00,,,0.00,Rainwise IP-100,2017-03-28 04:31:00,
2017-03-28 00:36:00,60.7,55.0,29.97,ESE,112,4.0,8.0,83,0.00,,,0.00,Rainwise IP-100,2017-03-28 04:36:00,
2017-03-28 00:41:00,60.8,55.0,29.97,SSE,157,3.0,7.0,83,0.00,,,0.00,Rainwise IP-100,2017-03-28 04:41:00,
2017-03-28 00:46:00,60.7,55.0,29.97,NNW,337,3.7,3.7,83,0.00,,,0.00,Rainwise IP-100,2017-03-28 04:46:00,
2017-03-28 00:51:00,60.3,55.0,29.98,WNW,292,2.8,4.0,84,0.00,,,0.00,Rainwise IP-100,2017-03-28 04:51:00,
2017-03-28 00:56:00,59.8,54.0,29.98,WNW,292,1.2,4.0,85,0.00,,,0.00,Rainwise IP-100,2017-03-28 04:56:00,
2017-03-28 01:01:00,59.7,55.0,29.98,West,270,4.4,4.4,86,0.00,,,0.00,Rainwise IP-100,2017-03-28 05:01:00,
2017-03-28 01:06:00,59.8,55.0,29.98,SSW,202,2.8,6.0,87,0.00,,,0.00,Rainwise IP-100,2017-03-28 05:06:00,
2017-03-28 01:12:00,59.7,55.0,29.99,WSW,247,3.0,11.0,87,0.00,,,0.00,Rainwise IP-100,2017-03-28 05:12:00,
2017-03-28 01:17:00,59.5,56.0,29.99,SSW,202,3.7,9.0,88,0.00,,,0.00,Rainwise IP-100,2017-03-28 05:17:00,
2017-03-28 01:22:00,59.4,56.0,29.99,SSW,202,7.0,10.0,89,0.00,,,0.00,Rainwise IP-100,2017-03-28 05:22:00,
2017-03-28 01:27:00,59.3,56.0,29.99,SSW,202,9.3,11.0,89,0.00,,,0.00,Rainwise IP-100,2017-03-28 05:27:00,
2017-03-28 01:32:00,59.3,56.0,29.99,SSW,202,5.4,10.0,90,0.00,,,0.00,Rainwise IP-100,2017-03-28 05:32:00,
2017-03-28 01:37:00,59.2,56.0,29.98,SSE,157,4.0,9.0,90,0.00,,,0.00,Rainwise IP-100,2017-03-28 05:37:00,
2017-03-28 01:42:00,59.2,56.0,29.98,ESE,112,1.2,10.0,90,0.00,,,0.00,Rainwise IP-100,2017-03-28 05:42:00,
2017-03-28 01:47:00,59.2,56.0,29.98,South,180,4.9,10.0,90,0.00,,,0.00,Rainwise IP-100,2017-03-28 05:47:00,
2017-03-28 01:52:00,59.1,56.0,29.97,South,180,2.1,8.0,90,0.00,,,0.00,Rainwise IP-100,2017-03-28 05:52:00,
2017-03-28 01:57:00,59.2,56.0,29.97,SE,135,4.9,10.0,90,0.00,,,0.00,Rainwise IP-100,2017-03-28 05:57:00,
2017-03-28 02:02:00,59.3,56.0,29.97,SSE,157,4.9,6.0,90,0.00,,,0.00,Rainwise IP-100,2017-03-28 06:02:00,
2017-03-28 02:07:00,59.3,56.0,29.97,SE,135,4.4,7.0,90,0.00,,,0.00,Rainwise IP-100,2017-03-28 06:07:00,
2017-03-28 02:13:00,59.4,56.0,29.96,ESE,112,4.4,9.0,90,0.00,,,0.00,Rainwise IP-100,2017-03-28 06:13:00,
2017-03-28 02:18:00,59.4,56.0,29.96,SSE,157,1.6,5.0,90,0.00,,,0.00,Rainwise IP-100,2017-03-28 06:18:00,
2017-03-28 02:23:00,59.2,56.0,29.96,SSE,157,2.8,5.0,90,0.00,,,0.00,Rainwise IP-100,2017-03-28 06:23:00,
2017-03-28 02:28:00,59.1,56.0,29.95,SSE,157,3.0,3.0,89,0.00,,,0.00,Rainwise IP-100,2017-03-28 06:28:00,
2017-03-28 02:33:00,59.2,56.0,29.95,SSW,202,3.3,5.0,89,0.00,,,0.00,Rainwise IP-100,2017-03-28 06:33:00,
2017-03-28 02:38:00,59.1,55.0,29.95,SSE,157,1.2,4.0,88,0.00,,,0.00,Rainwise IP-100,2017-03-28 06:38:00,
2017-03-28 02:43:00,59.1,55.0,29.94,ESE,112,1.6,3.0,88,0.00,,,0.00,Rainwise IP-100,2017-03-28 06:43:00,
2017-03-28 02:48:00,59.1,55.0,29.95,SSE,157,1.6,4.0,88,0.00,,,0.00,Rainwise IP-100,2017-03-28 06:48:00,
2017-03-28 02:53:00,59.0,55.0,29.95,SSE,157,0.0,2.0,88,0.00,,,0.00,Rainwise IP-100,2017-03-28 06:53:00,
2017-03-28 02:58:00,58.9,55.0,29.95,SSE,157,2.1,3.0,88,0.00,,,0.00,Rainwise IP-100,2017-03-28 06:58:00,
2017-03-28 03:03:00,58.8,55.0,29.94,SSW,202,2.6,4.0,88,0.00,,,0.00,Rainwise IP-100,2017-03-28 07:03:00,
2017-03-28 03:08:00,58.7,55.0,29.94,SSW,202,6.8,6.8,88,0.00,,,0.00,Rainwise IP-100,2017-03-28 07:08:00,
2017-03-28 03:14:00,58.6,55.0,29.94,SSE,157,4.2,7.0,88,0.00,,,0.00,Rainwise IP-100,2017-03-28 07:14:00,
2017-03-28 03:19:00,58.7,55.0,29.95,SSW,202,4.2,7.0,88,0.00,,,0.00,Rainwise IP-100,2017-03-28 07:19:00,
2017-03-28 03:24:00,58.9,55.0,29.95,SSW,202,10.7,10.7,88,0.00,,,0.00,Rainwise IP-100,2017-03-28 07:24:00,
2017-03-28 03:29:00,58.9,55.0,29.95,SSW,202,3.0,11.0,88,0.00,,,0.00,Rainwise IP-100,2017-03-28 07:29:00,
2017-03-28 03:34:00,58.7,56.0,29.95,South,180,9.3,10.0,89,0.00,,,0.00,Rainwise IP-100,2017-03-28 07:34:00,
2017-03-28 03:39:00,58.6,56.0,29.95,South,180,7.0,13.0,89,0.00,,,0.00,Rainwise IP-100,2017-03-28 07:39:00,
2017-03-28 03:44:00,58.6,56.0,29.95,SSW,202,7.2,10.0,90,0.00,,,0.00,Rainwise IP-100,2017-03-28 07:44:00,
2017-03-28 03:49:00,58.5,56.0,29.95,SSW,202,2.6,12.0,90,0.00,,,0.00,Rainwise IP-100,2017-03-28 07:49:00,
2017-03-28 03:54:00,58.4,56.0,29.94,SSW,202,5.6,10.0,91,0.00,,,0.00,Rainwise IP-100,2017-03-28 07:54:00,
2017-03-28 03:59:00,58.3,56.0,29.93,SSE,157,4.7,10.0,91,0.00,,,0.00,Rainwise IP-100,2017-03-28 07:59:00,
2017-03-28 04:04:00,58.1,56.0,29.94,SSE,157,3.7,11.0,92,0.00,,,0.00,Rainwise IP-100,2017-03-28 08:04:00,
2017-03-28 04:09:00,58.0,56.0,29.94,WSW,247,3.3,11.0,92,0.00,,,0.00,Rainwise IP-100,2017-03-28 08:09:00,
2017-03-28 04:15:00,58.0,56.0,29.93,SSE,157,9.1,9.1,92,0.00,,,0.00,Rainwise IP-100,2017-03-28 08:15:00,
2017-03-28 04:20:00,58.0,56.0,29.93,SSE,157,3.5,9.0,92,0.00,,,0.00,Rainwise IP-100,2017-03-28 08:20:00,
2017-03-28 04:25:00,57.9,56.0,29.93,South,180,5.6,10.0,91,0.00,,,0.00,Rainwise IP-100,2017-03-28 08:25:00,
2017-03-28 04:30:00,57.8,55.0,29.94,South,180,7.0,9.0,91,0.00,,,0.00,Rainwise IP-100,2017-03-28 08:30:00,
2017-03-28 04:35:00,57.8,55.0,29.93,SSE,157,2.8,9.0,91,0.00,,,0.00,Rainwise IP-100,2017-03-28 08:35:00,
2017-03-28 04:40:00,57.8,55.0,29.93,SSW,202,3.0,9.0,91,0.00,,,0.00,Rainwise IP-100,2017-03-28 08:40:00,
2017-03-28 04:45:00,57.8,54.0,29.93,South,180,3.5,10.0,90,0.00,,,0.00,Rainwise IP-100,2017-03-28 08:45:00,
2017-03-28 04:50:00,57.8,54.0,29.93,ESE,112,3.0,6.0,90,0.00,,,0.00,Rainwise IP-100,2017-03-28 08:50:00,
2017-03-28 04:55:00,57.8,54.0,29.94,SSE,157,2.3,4.0,90,0.00,,,0.00,Rainwise IP-100,2017-03-28 08:55:00,
2017-03-28 05:00:00,57.8,54.0,29.94,South,180,8.4,8.4,90,0.00,,,0.00,Rainwise IP-100,2017-03-28 09:00:00,
2017-03-28 05:05:00,57.8,54.0,29.93,South,180,7.5,8.0,90,0.00,,,0.00,Rainwise IP-100,2017-03-28 09:05:00,
2017-03-28 05:10:00,57.7,55.0,29.94,SW,225,2.6,7.0,91,0.00,,,0.00,Rainwise IP-100,2017-03-28 09:10:00,
2017-03-28 05:16:00,57.6,55.0,29.94,SSW,202,5.8,11.0,92,0.00,,,0.00,Rainwise IP-100,2017-03-28 09:16:00,
2017-03-28 05:21:00,57.4,55.0,29.94,SSW,202,5.6,7.0,92,0.00,,,0.00,Rainwise IP-100,2017-03-28 09:21:00,
2017-03-28 05:26:00,57.3,55.0,29.94,South,180,5.4,6.0,93,0.12,,,0.02,Rainwise IP-100,2017-03-28 09:26:00,
2017-03-28 05:31:00,57.2,55.0,29.94,South,180,3.7,6.0,94,0.18,,,0.03,Rainwise IP-100,2017-03-28 09:31:00,
2017-03-28 05:36:00,57.2,55.0,29.94,SSE,157,5.1,6.0,94,0.06,,,0.03,Rainwise IP-100,2017-03-28 09:36:00,
2017-03-28 05:41:00,57.2,55.0,29.94,SSE,157,5.1,5.1,94,0.00,,,0.03,Rainwise IP-100,2017-03-28 09:41:00,
2017-03-28 06:47:00,57.1,56.0,29.93,ESE,112,2.3,0.0,96,0.00,,,0.03,Rainwise IP-100,2017-03-28 10:47:00,
2017-03-28 06:52:00,57.1,56.0,29.93,ESE,112,2.3,2.3,96,0.00,,,0.03,Rainwise IP-100,2017-03-28 10:52:00,
2017-03-28 06:57:00,57.1,56.0,29.93,SE,135,3.3,3.3,96,0.00,,,0.03,Rainwise IP-100,2017-03-28 10:57:00,
2017-03-28 07:41:00,56.9,56.0,29.96,SE,135,1.4,0.0,97,0.00,,,0.03,Rainwise IP-100,2017-03-28 11:41:00,
2017-03-28 07:47:00,56.9,56.0,29.96,SE,135,2.1,2.1,97,0.00,,,0.03,Rainwise IP-100,2017-03-28 11:47:00,
2017-03-28 07:52:00,56.9,56.0,29.96,SE,135,2.1,2.1,97,0.00,,,0.03,Rainwise IP-100,2017-03-28 11:52:00,
2017-03-28 09:12:00,58.1,56.0,29.96,South,180,5.8,0.0,94,0.00,,,0.03,Rainwise IP-100,2017-03-28 13:12:00,
2017-03-28 09:17:00,58.0,56.0,29.96,SSE,157,3.7,5.0,94,0.00,,,0.03,Rainwise IP-100,2017-03-28 13:17:00,
2017-03-28 09:22:00,58.0,56.0,29.96,SSW,202,1.4,4.0,94,0.00,,,0.03,Rainwise IP-100,2017-03-28 13:22:00,
2017-03-28 09:27:00,58.1,56.0,29.96,SSW,202,2.6,3.0,94,0.00,,,0.03,Rainwise IP-100,2017-03-28 13:27:00,
2017-03-28 09:32:00,58.1,56.0,29.96,SSW,202,1.6,2.0,93,0.00,,,0.03,Rainwise IP-100,2017-03-28 13:32:00,
2017-03-28 09:37:00,58.1,56.0,29.96,SSE,157,1.2,2.0,93,0.00,,,0.03,Rainwise IP-100,2017-03-28 13:37:00,
2017-03-28 09:42:00,58.1,56.0,29.96,SSE,157,1.2,1.2,93,0.00,,,0.03,Rainwise IP-100,2017-03-28 13:42:00,
2017-03-28 09:47:00,58.4,56.0,29.96,WSW,247,2.6,2.6,92,0.00,,,0.03,Rainwise IP-100,2017-03-28 13:47:00,
2017-03-28 09:52:00,58.4,56.0,29.96,SSW,202,3.0,4.0,92,0.00,,,0.03,Rainwise IP-100,2017-03-28 13:52:00,
2017-03-28 09:57:00,58.5,56.0,29.96,SW,225,1.9,5.0,92,0.00,,,0.03,Rainwise IP-100,2017-03-28 13:57:00,
2017-03-28 10:02:00,58.7,56.0,29.97,SSW,202,3.7,4.0,92,0.00,,,0.03,Rainwise IP-100,2017-03-28 14:02:00,
2017-03-28 10:08:00,58.8,56.0,29.97,WSW,247,3.5,6.0,91,0.00,,,0.03,Rainwise IP-100,2017-03-28 14:08:00,
2017-03-28 10:13:00,58.9,56.0,29.97,SSW,202,5.1,7.0,91,0.00,,,0.03,Rainwise IP-100,2017-03-28 14:13:00,
2017-03-28 10:18:00,59.1,56.0,29.96,SSW,202,3.3,7.0,91,0.00,,,0.03,Rainwise IP-100,2017-03-28 14:18:00,
2017-03-28 10:23:00,59.2,56.0,29.96,WSW,247,1.2,8.0,90,0.00,,,0.03,Rainwise IP-100,2017-03-28 14:23:00,
2017-03-28 10:28:00,59.4,56.0,29.97,WSW,247,3.7,6.0,90,0.00,,,0.03,Rainwise IP-100,2017-03-28 14:28:00,
2017-03-28 10:33:00,59.6,56.0,29.97,SSE,157,5.8,7.0,90,0.00,,,0.03,Rainwise IP-100,2017-03-28 14:33:00,
2017-03-28 10:38:00,59.8,56.0,29.96,WSW,247,6.5,6.5,90,0.00,,,0.03,Rainwise IP-100,2017-03-28 14:38:00,
2017-03-28 10:43:00,59.9,57.0,29.96,WSW,247,4.0,6.0,90,0.00,,,0.03,Rainwise IP-100,2017-03-28 14:43:00,
2017-03-28 10:48:00,59.8,56.0,29.97,WSW,247,3.3,5.0,90,0.00,,,0.03,Rainwise IP-100,2017-03-28 14:48:00,
2017-03-28 10:53:00,59.9,57.0,29.97,WSW,247,2.6,6.0,90,0.00,,,0.03,Rainwise IP-100,2017-03-28 14:53:00,
2017-03-28 10:58:00,59.9,57.0,29.97,WSW,247,2.6,2.6,90,0.00,,,0.03,Rainwise IP-100,2017-03-28 14:58:00,
2017-03-28 11:05:00,59.8,56.0,29.97,WSW,247,4.0,7.0,89,0.00,,,0.03,Rainwise IP-100,2017-03-28 15:05:00,
2017-03-28 11:10:00,60.0,56.0,29.97,West,270,5.8,11.0,88,0.00,,,0.03,Rainwise IP-100,2017-03-28 15:10:00,
2017-03-28 11:15:00,60.0,56.0,29.97,WSW,247,4.4,11.0,88,0.00,,,0.03,Rainwise IP-100,2017-03-28 15:15:00,
2017-03-28 11:20:00,59.9,56.0,29.97,WSW,247,9.8,9.8,88,0.00,,,0.03,Rainwise IP-100,2017-03-28 15:20:00,
2017-03-28 11:25:00,59.8,56.0,29.97,WSW,247,5.4,9.0,88,0.00,,,0.03,Rainwise IP-100,2017-03-28 15:25:00,
2017-03-28 11:30:00,59.8,56.0,29.97,WSW,247,4.9,7.0,88,0.00,,,0.03,Rainwise IP-100,2017-03-28 15:30:00,
2017-03-28 11:35:00,59.8,56.0,29.98,WSW,247,6.3,8.0,89,0.00,,,0.03,Rainwise IP-100,2017-03-28 15:35:00,
2017-03-28 11:40:00,59.7,56.0,29.98,WSW,247,6.1,9.0,89,0.00,,,0.03,Rainwise IP-100,2017-03-28 15:40:00,
2017-03-28 11:45:00,59.5,56.0,29.98,West,270,7.5,11.0,89,0.00,,,0.03,Rainwise IP-100,2017-03-28 15:45:00,
2017-03-28 11:50:00,59.4,56.0,29.97,WSW,247,5.4,8.0,90,0.00,,,0.03,Rainwise IP-100,2017-03-28 15:50:00,
2017-03-28 11:55:00,59.2,56.0,29.98,West,270,5.6,9.0,90,0.00,,,0.03,Rainwise IP-100,2017-03-28 15:55:00,
2017-03-28 12:01:00,59.1,56.0,29.98,West,270,2.8,9.0,90,0.00,,,0.03,Rainwise IP-100,2017-03-28 16:01:00,
2017-03-28 12:06:00,59.0,56.0,29.98,WSW,247,5.1,7.0,90,0.00,,,0.03,Rainwise IP-100,2017-03-28 16:06:00,
2017-03-28 12:11:00,59.2,56.0,29.98,West,270,2.6,8.0,90,0.00,,,0.03,Rainwise IP-100,2017-03-28 16:11:00,
2017-03-28 12:16:00,59.5,56.0,29.98,SSW,202,2.1,3.0,90,0.00,,,0.03,Rainwise IP-100,2017-03-28 16:16:00,
2017-03-28 12:21:00,60.0,56.0,29.98,WSW,247,4.4,4.4,89,0.00,,,0.03,Rainwise IP-100,2017-03-28 16:21:00,
2017-03-28 12:26:00,60.1,56.0,29.97,WSW,247,3.5,6.0,88,0.00,,,0.03,Rainwise IP-100,2017-03-28 16:26:00,
2017-03-28 12:31:00,60.0,56.0,29.98,WSW,247,8.2,8.2,88,0.00,,,0.03,Rainwise IP-100,2017-03-28 16:31:00,
2017-03-28 12:36:00,60.1,56.0,29.97,WSW,247,5.4,9.0,87,0.00,,,0.03,Rainwise IP-100,2017-03-28 16:36:00,
2017-03-28 12:41:00,60.1,56.0,29.97,WSW,247,4.0,8.0,87,0.00,,,0.03,Rainwise IP-100,2017-03-28 16:41:00,
2017-03-28 12:46:00,60.1,56.0,29.97,WSW,247,4.9,7.0,87,0.00,,,0.03,Rainwise IP-100,2017-03-28 16:46:00,
2017-03-28 12:51:00,60.3,56.0,29.97,WNW,292,6.5,6.5,86,0.00,,,0.03,Rainwise IP-100,2017-03-28 16:51:00,
2017-03-28 12:56:00,60.3,56.0,29.97,WNW,292,6.5,6.5,86,0.00,,,0.03,Rainwise IP-100,2017-03-28 16:56:00,
2017-03-28 13:01:00,60.7,56.0,29.97,West,270,4.2,10.0,85,0.00,,,0.03,Rainwise IP-100,2017-03-28 17:01:00,
2017-03-28 13:07:00,60.9,56.0,29.97,WSW,247,4.4,12.0,85,0.00,,,0.03,Rainwise IP-100,2017-03-28 17:07:00,
2017-03-28 13:12:00,60.8,56.0,29.97,WSW,247,3.0,9.0,84,0.00,,,0.03,Rainwise IP-100,2017-03-28 17:12:00,
2017-03-28 13:17:00,61.0,56.0,29.96,WNW,292,0.0,7.0,84,0.00,,,0.03,Rainwise IP-100,2017-03-28 17:17:00,
2017-03-28 13:22:00,61.2,56.0,29.96,SW,225,3.3,3.3,84,0.00,,,0.03,Rainwise IP-100,2017-03-28 17:22:00,
2017-03-28 13:23:00,61.2,56.0,29.96,SW,225,3.3,3.3,84,0.00,,,0.03,Rainwise IP-100,2017-03-28 17:23:00,
2017-03-28 13:28:00,61.6,56.0,29.97,WSW,247,3.3,6.0,83,0.00,,,0.03,Rainwise IP-100,2017-03-28 17:28:00,
2017-03-28 13:33:00,61.5,56.0,29.96,WSW,247,3.7,5.0,82,0.00,,,0.03,Rainwise IP-100,2017-03-28 17:33:00,
2017-03-28 13:38:00,61.3,56.0,29.96,WNW,292,4.0,7.0,83,0.00,,,0.03,Rainwise IP-100,2017-03-28 17:38:00,
2017-03-28 13:43:00,61.3,56.0,29.97,SW,225,3.5,6.0,83,0.00,,,0.03,Rainwise IP-100,2017-03-28 17:43:00,
2017-03-28 13:48:00,61.5,56.0,29.97,West,270,4.2,7.0,83,0.00,,,0.03,Rainwise IP-100,2017-03-28 17:48:00,
2017-03-28 13:53:00,61.5,56.0,29.96,WNW,292,7.0,13.0,83,0.00,,,0.03,Rainwise IP-100,2017-03-28 17:53:00,
2017-03-28 13:58:00,61.4,56.0,29.97,SW,225,9.1,12.0,83,0.00,,,0.03,Rainwise IP-100,2017-03-28 17:58:00,
2017-03-28 14:04:00,61.2,56.0,29.97,WSW,247,6.5,9.0,83,0.00,,,0.03,Rainwise IP-100,2017-03-28 18:04:00,
2017-03-28 14:09:00,60.9,56.0,29.97,West,270,5.1,9.0,84,0.00,,,0.03,Rainwise IP-100,2017-03-28 18:09:00,
2017-03-28 14:14:00,60.8,56.0,29.97,WSW,247,6.8,10.0,86,0.00,,,0.03,Rainwise IP-100,2017-03-28 18:14:00,
2017-03-28 14:19:00,61.1,56.0,29.97,WNW,292,8.4,10.0,86,0.00,,,0.03,Rainwise IP-100,2017-03-28 18:19:00,
2017-03-28 14:24:00,61.4,57.0,29.97,WNW,292,7.7,9.0,85,0.00,,,0.03,Rainwise IP-100,2017-03-28 18:24:00,
2017-03-28 14:29:00,61.1,56.0,29.97,WSW,247,7.9,11.0,84,0.00,,,0.03,Rainwise IP-100,2017-03-28 18:29:00,
2017-03-28 14:34:00,60.5,56.0,29.97,WSW,247,7.7,10.0,85,0.00,,,0.03,Rainwise IP-100,2017-03-28 18:34:00,
2017-03-28 14:39:00,60.4,56.0,29.97,SW,225,7.9,9.0,85,0.00,,,0.03,Rainwise IP-100,2017-03-28 18:39:00,
2017-03-28 14:44:00,60.7,56.0,29.97,WSW,247,1.4,9.0,85,0.00,,,0.03,Rainwise IP-100,2017-03-28 18:44:00,
2017-03-28 14:49:00,60.7,56.0,29.97,WSW,247,1.4,1.4,85,0.00,,,0.03,Rainwise IP-100,2017-03-28 18:49:00,
2017-03-28 14:54:00,61.8,56.0,29.97,WSW,247,2.1,6.0,83,0.00,,,0.03,Rainwise IP-100,2017-03-28 18:54:00,
2017-03-28 14:59:00,62.3,56.0,29.96,West,270,4.9,9.0,82,0.00,,,0.03,Rainwise IP-100,2017-03-28 18:59:00,
2017-03-28 15:05:00,62.7,56.0,29.96,SW,225,5.1,11.0,81,0.00,,,0.03,Rainwise IP-100,2017-03-28 19:05:00,
2017-03-28 15:10:00,62.6,56.0,29.96,WSW,247,5.4,13.0,80,0.00,,,0.03,Rainwise IP-100,2017-03-28 19:10:00,
2017-03-28 15:12:00,62.5,56.0,29.96,NW,315,9.8,13.0,79,0.00,,,0.03,Rainwise IP-100,2017-03-28 19:12:00,
2017-03-28 15:17:00,62.4,56.0,29.96,WSW,247,8.9,15.0,79,0.00,,,0.03,Rainwise IP-100,2017-03-28 19:17:00,
2017-03-28 15:22:00,62.4,56.0,29.97,WSW,247,1.6,13.0,79,0.00,,,0.03,Rainwise IP-100,2017-03-28 19:22:00,
2017-03-28 15:27:00,62.4,56.0,29.97,West,270,8.9,11.0,79,0.00,,,0.03,Rainwise IP-100,2017-03-28 19:27:00,
2017-03-28 15:32:00,62.4,56.0,29.96,West,270,7.5,9.0,79,0.00,,,0.03,Rainwise IP-100,2017-03-28 19:32:00,
2017-03-28 15:37:00,62.1,56.0,29.97,WNW,292,13.5,14.0,80,0.00,,,0.03,Rainwise IP-100,2017-03-28 19:37:00,
2017-03-28 15:42:00,61.8,55.0,29.97,NNW,337,3.5,13.0,80,0.00,,,0.03,Rainwise IP-100,2017-03-28 19:42:00,
2017-03-28 15:47:00,61.7,55.0,29.97,WNW,292,10.3,14.0,80,0.00,,,0.03,Rainwise IP-100,2017-03-28 19:47:00,
2017-03-28 15:52:00,61.7,56.0,29.98,West,270,8.9,12.0,81,0.00,,,0.03,Rainwise IP-100,2017-03-28 19:52:00,
2017-03-28 15:57:00,61.2,55.0,29.98,WSW,247,7.9,11.0,81,0.00,,,0.03,Rainwise IP-100,2017-03-28 19:57:00,
2017-03-28 16:02:00,60.4,54.0,29.98,WNW,292,4.7,18.0,82,0.00,,,0.03,Rainwise IP-100,2017-03-28 20:02:00,
2017-03-28 16:08:00,60.0,55.0,29.98,WSW,247,7.0,16.0,84,0.00,,,0.03,Rainwise IP-100,2017-03-28 20:08:00,
2017-03-28 16:13:00,60.1,55.0,29.98,WSW,247,6.8,15.0,84,0.00,,,0.03,Rainwise IP-100,2017-03-28 20:13:00,
2017-03-28 16:18:00,59.8,54.0,29.98,NNW,337,3.0,10.0,85,0.00,,,0.03,Rainwise IP-100,2017-03-28 20:18:00,
2017-03-28 16:23:00,59.3,55.0,29.98,WNW,292,6.8,8.0,87,0.00,,,0.03,Rainwise IP-100,2017-03-28 20:23:00,
2017-03-28 16:28:00,59.2,56.0,29.99,NNW,337,3.0,7.0,89,0.00,,,0.03,Rainwise IP-100,2017-03-28 20:28:00,
2017-03-28 16:33:00,59.4,56.0,29.99,NNW,337,3.0,6.0,89,0.00,,,0.03,Rainwise IP-100,2017-03-28 20:33:00,
2017-03-28 16:38:00,59.6,56.0,29.99,WNW,292,1.2,5.0,89,0.00,,,0.03,Rainwise IP-100,2017-03-28 20:38:00,
2017-03-28 16:43:00,59.8,56.0,29.99,WSW,247,1.4,6.0,89,0.00,,,0.03,Rainwise IP-100,2017-03-28 20:43:00,
2017-03-28 16:48:00,60.0,56.0,29.99,WNW,292,2.6,7.0,89,0.00,,,0.03,Rainwise IP-100,2017-03-28 20:48:00,
2017-03-28 16:53:00,60.2,56.0,29.99,WSW,247,8.6,10.0,88,0.00,,,0.03,Rainwise IP-100,2017-03-28 20:53:00,
2017-03-28 16:58:00,60.2,56.0,29.98,WNW,292,13.3,15.0,86,0.00,,,0.03,Rainwise IP-100,2017-03-28 20:58:00,
2017-03-28 17:03:00,59.8,55.0,29.99,WNW,292,10.5,16.0,87,0.00,,,0.03,Rainwise IP-100,2017-03-28 21:03:00,
2017-03-28 17:09:00,59.0,56.0,30.00,WNW,292,7.9,14.0,90,0.00,,,0.03,Rainwise IP-100,2017-03-28 21:09:00,
2017-03-28 17:14:00,58.8,56.0,30.00,WNW,292,4.7,9.0,92,0.00,,,0.03,Rainwise IP-100,2017-03-28 21:14:00,
2017-03-28 17:19:00,58.7,57.0,30.01,WNW,292,7.0,10.0,94,0.00,,,0.03,Rainwise IP-100,2017-03-28 21:19:00,
2017-03-28 17:24:00,58.6,57.0,30.01,WNW,292,3.3,7.0,95,0.00,,,0.03,Rainwise IP-100,2017-03-28 21:24:00,
2017-03-28 17:29:00,58.6,57.0,30.01,WNW,292,7.2,11.0,95,0.00,,,0.03,Rainwise IP-100,2017-03-28 21:29:00,
2017-03-28 17:34:00,58.6,57.0,30.01,WNW,292,7.2,10.0,96,0.00,,,0.03,Rainwise IP-100,2017-03-28 21:34:00,
2017-03-28 17:39:00,58.5,57.0,30.01,WNW,292,7.2,12.0,96,0.00,,,0.03,Rainwise IP-100,2017-03-28 21:39:00,
2017-03-28 17:44:00,58.4,57.0,30.01,WNW,292,8.6,14.0,96,0.00,,,0.03,Rainwise IP-100,2017-03-28 21:44:00,
2017-03-28 17:49:00,58.2,57.0,30.01,WNW,292,5.8,11.0,97,0.00,,,0.03,Rainwise IP-100,2017-03-28 21:49:00,
2017-03-28 17:54:00,58.1,57.0,30.02,WNW,292,8.2,11.0,97,0.00,,,0.03,Rainwise IP-100,2017-03-28 21:54:00,
2017-03-28 17:59:00,58.0,57.0,30.02,West,270,7.5,13.0,97,0.00,,,0.03,Rainwise IP-100,2017-03-28 21:59:00,
2017-03-28 18:04:00,58.0,57.0,30.02,NNW,337,6.5,16.0,97,0.00,,,0.03,Rainwise IP-100,2017-03-28 22:04:00,
2017-03-28 18:10:00,57.7,56.0,30.02,WNW,292,12.8,13.0,96,0.00,,,0.03,Rainwise IP-100,2017-03-28 22:10:00,
2017-03-28 18:15:00,57.3,56.0,30.02,NNW,337,3.3,12.0,96,0.00,,,0.03,Rainwise IP-100,2017-03-28 22:15:00,
2017-03-28 18:20:00,57.2,56.0,30.02,WNW,292,6.3,12.0,96,0.00,,,0.03,Rainwise IP-100,2017-03-28 22:20:00,
2017-03-28 18:25:00,57.2,56.0,30.03,WNW,292,9.3,11.0,97,0.00,,,0.03,Rainwise IP-100,2017-03-28 22:25:00,
2017-03-28 18:30:00,57.1,56.0,30.03,WNW,292,9.1,9.1,97,0.00,,,0.03,Rainwise IP-100,2017-03-28 22:30:00,
2017-03-28 18:35:00,56.9,56.0,30.03,WNW,292,7.0,12.0,97,0.00,,,0.03,Rainwise IP-100,2017-03-28 22:35:00,
2017-03-28 18:40:00,56.7,55.0,30.03,WNW,292,6.3,11.0,96,0.00,,,0.03,Rainwise IP-100,2017-03-28 22:40:00,
2017-03-28 18:45:00,56.7,55.0,30.04,WNW,292,4.2,9.0,96,0.00,,,0.03,Rainwise IP-100,2017-03-28 22:45:00,
2017-03-28 18:50:00,56.6,55.0,30.04,NNW,337,5.8,9.0,96,0.00,,,0.03,Rainwise IP-100,2017-03-28 22:50:00,
2017-03-28 18:55:00,56.5,55.0,30.04,WNW,292,9.3,9.3,96,0.00,,,0.03,Rainwise IP-100,2017-03-28 22:55:00,
2017-03-28 19:00:00,56.4,55.0,30.05,WNW,292,8.2,9.0,96,0.00,,,0.03,Rainwise IP-100,2017-03-28 23:00:00,
2017-03-28 19:05:00,56.4,55.0,30.05,NNW,337,6.3,10.0,96,0.00,,,0.03,Rainwise IP-100,2017-03-28 23:05:00,
2017-03-28 19:11:00,56.3,54.0,30.05,WNW,292,4.2,7.0,96,0.00,,,0.03,Rainwise IP-100,2017-03-28 23:11:00,
2017-03-28 19:16:00,56.3,54.0,30.05,WNW,292,5.8,8.0,96,0.00,,,0.03,Rainwise IP-100,2017-03-28 23:16:00,
2017-03-28 19:21:00,56.3,54.0,30.05,NW,315,4.4,7.0,96,0.00,,,0.03,Rainwise IP-100,2017-03-28 23:21:00,
2017-03-28 19:26:00,56.3,54.0,30.06,NW,315,9.8,12.0,96,0.00,,,0.03,Rainwise IP-100,2017-03-28 23:26:00,
2017-03-28 19:31:00,56.3,54.0,30.07,WNW,292,6.8,10.0,95,0.00,,,0.03,Rainwise IP-100,2017-03-28 23:31:00,
2017-03-28 19:36:00,56.3,54.0,30.07,WNW,292,5.6,10.0,95,0.00,,,0.03,Rainwise IP-100,2017-03-28 23:36:00,
2017-03-28 19:41:00,56.2,54.0,30.07,WNW,292,4.0,10.0,95,0.00,,,0.03,Rainwise IP-100,2017-03-28 23:41:00,
2017-03-28 19:46:00,56.1,54.0,30.07,WNW,292,7.2,7.2,95,0.00,,,0.03,Rainwise IP-100,2017-03-28 23:46:00,
2017-03-28 19:51:00,56.1,54.0,30.07,NNW,337,3.3,10.0,95,0.00,,,0.03,Rainwise IP-100,2017-03-28 23:51:00,
2017-03-28 19:56:00,56.1,54.0,30.07,WNW,292,3.7,7.0,94,0.00,,,0.03,Rainwise IP-100,2017-03-28 23:56:00,
2017-03-28 20:01:00,56.1,54.0,30.07,NNW,337,4.0,9.0,94,0.00,,,0.03,Rainwise IP-100,2017-03-29 00:01:00,
2017-03-28 20:06:00,56.1,54.0,30.08,NW,315,1.9,6.0,94,0.00,,,0.03,Rainwise IP-100,2017-03-29 00:06:00,
2017-03-28 20:12:00,56.0,54.0,30.07,WNW,292,7.5,12.0,94,0.00,,,0.03,Rainwise IP-100,2017-03-29 00:12:00,
2017-03-28 20:17:00,55.9,54.0,30.08,WNW,292,5.4,10.0,93,0.00,,,0.03,Rainwise IP-100,2017-03-29 00:17:00,
2017-03-28 20:22:00,55.8,53.0,30.08,WNW,292,7.0,11.0,92,0.00,,,0.03,Rainwise IP-100,2017-03-29 00:22:00,
2017-03-28 20:27:00,55.8,53.0,30.08,WNW,292,6.8,9.0,92,0.00,,,0.03,Rainwise IP-100,2017-03-29 00:27:00,
2017-03-28 20:32:00,55.8,53.0,30.08,NW,315,6.5,9.0,92,0.00,,,0.03,Rainwise IP-100,2017-03-29 00:32:00,
2017-03-28 20:37:00,55.8,53.0,30.08,WNW,292,5.4,8.0,92,0.00,,,0.03,Rainwise IP-100,2017-03-29 00:37:00,
2017-03-28 20:42:00,55.7,53.0,29.99,WNW,292,4.0,9.0,92,0.00,,,0.03,Rainwise IP-100,2017-03-29 00:42:00,
2017-03-28 20:47:00,55.7,53.0,29.99,NNW,337,4.4,6.0,92,0.00,,,0.03,Rainwise IP-100,2017-03-29 00:47:00,
2017-03-28 20:52:00,55.7,53.0,30.00,NNW,337,5.6,8.0,92,0.00,,,0.03,Rainwise IP-100,2017-03-29 00:52:00,
2017-03-28 20:57:00,55.7,53.0,30.00,NNW,337,4.7,6.0,91,0.00,,,0.03,Rainwise IP-100,2017-03-29 00:57:00,
2017-03-28 21:02:00,55.7,53.0,30.00,WNW,292,2.8,6.0,91,0.00,,,0.03,Rainwise IP-100,2017-03-29 01:02:00,
2017-03-28 21:08:00,55.6,53.0,30.00,WNW,292,3.5,5.0,91,0.00,,,0.03,Rainwise IP-100,2017-03-29 01:08:00,
2017-03-28 21:13:00,55.6,53.0,30.01,WNW,292,3.7,4.0,91,0.00,,,0.03,Rainwise IP-100,2017-03-29 01:13:00,
2017-03-28 21:18:00,55.6,53.0,30.01,WNW,292,6.5,6.5,91,0.00,,,0.03,Rainwise IP-100,2017-03-29 01:18:00,
2017-03-28 21:23:00,55.6,53.0,30.01,NW,315,2.3,6.0,91,0.00,,,0.03,Rainwise IP-100,2017-03-29 01:23:00,
2017-03-28 21:28:00,55.6,53.0,30.01,NW,315,4.9,6.0,91,0.00,,,0.03,Rainwise IP-100,2017-03-29 01:28:00,
2017-03-28 21:33:00,55.6,53.0,30.01,NW,315,6.5,6.5,91,0.00,,,0.03,Rainwise IP-100,2017-03-29 01:33:00,
2017-03-28 21:38:00,55.5,53.0,30.01,NW,315,8.2,10.0,91,0.00,,,0.03,Rainwise IP-100,2017-03-29 01:38:00,